Location: Ajisawe
(8.4333°N, 4.3833°E)
Time: 20:46:35
(UTC+00:00)

Vanguard 2 Rocket - Pass Details

Date: 26 April 2021
Orbit: 554 x 3326 km, 32.9° (Epoch: 16 May)

Event Time Altitude Azimuth Distance (km) Brightness Sun altitude
Rises 08:28:22 0° 235° (SW) 3,892 9.7 42.7°
Reaches altitude 10° 08:30:33 10° 235° (SW) 3,185 9.4 43.2°
Maximum altitude 08:38:52 89° 144° (SE) 1,804 9.3 45.2°
Drops below altitude 10° 08:54:09 10° 56° (ENE) 5,523 11.7 49.0°
Sets 08:59:15 0° 57° (ENE) 6,863 11.9 50.2°
